AUA082 LOWI-LOWW

Flight info

Callsign AUA082
Flight time 0h 33m
Altitude 29000
Route RTT DCT NEMAL NEMAL2W
Aircraft A20N/M-SDE2E3FGHIRWXY/LB1

Departure

Time 2026-05-08 06:23
Airport Innsbruck Airport (LOWI)

Arrival

Time 2026-05-08 06:56
Airport Vienna International Airport (LOWW)
Time Latitude Longitude Altitude Speed Heading
2026-05-08 05:55 47.25824 11.35057 1896 ft 0 kts 171°
2026-05-08 06:15 47.25846 11.35051 1898 ft 3 kts 171°
2026-05-08 06:15 47.25873 11.35045 1899 ft 3 kts 173°
2026-05-08 06:16 47.25895 11.35058 1899 ft 3 kts 229°
2026-05-08 06:16 47.25902 11.35082 1899 ft 0 kts 265°
2026-05-08 06:19 47.25879 11.35024 1899 ft 12 kts 241°
2026-05-08 06:19 47.25858 11.34889 1900 ft 12 kts 261°
2026-05-08 06:19 47.25847 11.34775 1901 ft 10 kts 264°
2026-05-08 06:19 47.25835 11.34666 1901 ft 11 kts 260°
2026-05-08 06:20 47.25821 11.34533 1904 ft 13 kts 260°
2026-05-08 06:20 47.25803 11.34373 1905 ft 19 kts 261°
2026-05-08 06:20 47.25779 11.34146 1909 ft 23 kts 261°
2026-05-08 06:20 47.25800 11.33894 1916 ft 24 kts 303°
2026-05-08 06:21 47.25912 11.33668 1923 ft 25 kts 304°
2026-05-08 06:21 47.25915 11.33442 1928 ft 19 kts 260°
2026-05-08 06:21 47.25892 11.33240 1926 ft 19 kts 252°
2026-05-08 06:21 47.25845 11.33132 1923 ft 6 kts 275°
2026-05-08 06:22 47.25875 11.33126 1923 ft 5 kts 29°
2026-05-08 06:22 47.25885 11.33150 1923 ft 0 kts 74°
2026-05-08 06:22 47.25917 11.33424 1927 ft 66 kts 80°
2026-05-08 06:22 47.26033 11.34496 1904 ft 139 kts 80°
2026-05-08 06:23 47.26210 11.36131 2209 ft 167 kts 81°
2026-05-08 06:23 47.26389 11.37905 2811 ft 180 kts 82°
2026-05-08 06:23 47.26632 11.39887 3357 ft 203 kts 78°
2026-05-08 06:23 47.26955 11.42065 3984 ft 222 kts 77°
2026-05-08 06:24 47.27323 11.44421 4584 ft 237 kts 76°
2026-05-08 06:24 47.27779 11.46875 5197 ft 253 kts 75°
2026-05-08 06:24 47.28285 11.49544 5806 ft 269 kts 74°
2026-05-08 06:24 47.28803 11.52279 6656 ft 274 kts 74°
2026-05-08 06:25 47.29324 11.55041 7568 ft 276 kts 74°
2026-05-08 06:25 47.29855 11.57850 8459 ft 279 kts 74°
2026-05-08 06:25 47.30390 11.60692 9352 ft 281 kts 75°
2026-05-08 06:25 47.30968 11.63513 10157 ft 286 kts 69°
2026-05-08 06:26 47.31892 11.66327 10643 ft 303 kts 58°
2026-05-08 06:26 47.33131 11.69050 11046 ft 321 kts 54°
2026-05-08 06:26 47.34495 11.71881 11413 ft 339 kts 54°
2026-05-08 06:26 47.35941 11.74881 11743 ft 357 kts 54°
2026-05-08 06:27 47.37449 11.78043 12052 ft 375 kts 54°
2026-05-08 06:27 47.38962 11.81464 12332 ft 391 kts 58°
2026-05-08 06:27 47.40351 11.85143 12602 ft 406 kts 62°
2026-05-08 06:27 47.41615 11.89087 13054 ft 415 kts 65°
2026-05-08 06:28 47.42844 11.93133 13630 ft 420 kts 65°
2026-05-08 06:28 47.44112 11.97224 14139 ft 426 kts 64°
2026-05-08 06:28 47.45414 12.01282 14686 ft 431 kts 63°
2026-05-08 06:28 47.46745 12.05410 15244 ft 435 kts 63°
2026-05-08 06:29 47.48098 12.09610 15809 ft 438 kts 63°
2026-05-08 06:29 47.49455 12.13835 16359 ft 442 kts 63°
2026-05-08 06:29 47.50816 12.18086 16887 ft 446 kts 64°
2026-05-08 06:29 47.52183 12.22363 17337 ft 451 kts 64°
2026-05-08 06:30 47.53574 12.26728 17808 ft 455 kts 64°
2026-05-08 06:30 47.54970 12.31119 18296 ft 459 kts 64°
2026-05-08 06:30 47.56370 12.35529 18736 ft 463 kts 64°
2026-05-08 06:30 47.57781 12.39983 19188 ft 467 kts 64°
2026-05-08 06:31 47.59184 12.44420 19644 ft 470 kts 64°
2026-05-08 06:31 47.60614 12.48950 20076 ft 473 kts 64°
2026-05-08 06:31 47.62055 12.53524 20495 ft 477 kts 64°
2026-05-08 06:31 47.63505 12.58134 20921 ft 480 kts 64°
2026-05-08 06:32 47.64965 12.62783 21307 ft 483 kts 64°
2026-05-08 06:32 47.66415 12.67409 21685 ft 486 kts 64°
2026-05-08 06:32 47.67886 12.72110 22074 ft 489 kts 64°
2026-05-08 06:32 47.69360 12.76833 22432 ft 492 kts 64°
2026-05-08 06:33 47.70843 12.81592 22783 ft 494 kts 64°
2026-05-08 06:33 47.72348 12.86430 23110 ft 496 kts 64°
2026-05-08 06:33 47.73821 12.91175 23406 ft 498 kts 64°
2026-05-08 06:33 47.75308 12.95971 23686 ft 501 kts 64°
2026-05-08 06:34 47.76821 13.00865 23943 ft 503 kts 64°
2026-05-08 06:34 47.78322 13.05724 24185 ft 505 kts 64°
2026-05-08 06:34 47.79843 13.10662 24421 ft 507 kts 64°
2026-05-08 06:34 47.81342 13.15537 24648 ft 509 kts 64°
2026-05-08 06:35 47.82855 13.20468 24946 ft 509 kts 64°
2026-05-08 06:35 47.84386 13.25465 25246 ft 509 kts 64°
2026-05-08 06:35 47.85902 13.30424 25566 ft 508 kts 64°
2026-05-08 06:35 47.87410 13.35367 25845 ft 508 kts 64°
2026-05-08 06:36 47.88924 13.40344 26120 ft 509 kts 64°
2026-05-08 06:36 47.90352 13.45350 26404 ft 509 kts 69°
2026-05-08 06:36 47.91332 13.50595 26677 ft 510 kts 78°
2026-05-08 06:36 47.91797 13.55971 26959 ft 511 kts 86°
2026-05-08 06:37 47.91849 13.61459 27252 ft 510 kts 90°
2026-05-08 06:37 47.91793 13.66849 27507 ft 511 kts 91°
2026-05-08 06:37 47.91722 13.72270 27745 ft 512 kts 91°
2026-05-08 06:37 47.91668 13.77751 27996 ft 512 kts 91°
2026-05-08 06:38 47.91630 13.83119 28253 ft 512 kts 91°
2026-05-08 06:38 47.91596 13.88518 28496 ft 513 kts 91°
2026-05-08 06:38 47.91560 13.93956 28743 ft 513 kts 91°
2026-05-08 06:38 47.91520 13.99450 28990 ft 513 kts 91°
2026-05-08 06:39 47.91433 14.10314 29047 ft 515 kts 91°
2026-05-08 06:39 47.91334 14.21298 29049 ft 516 kts 91°
2026-05-08 06:40 47.91226 14.32273 29052 ft 516 kts 91°
2026-05-08 06:40 47.91104 14.43395 29048 ft 516 kts 91°
2026-05-08 06:41 47.90971 14.54426 29046 ft 516 kts 91°
2026-05-08 06:41 47.90828 14.65444 29045 ft 515 kts 91°
2026-05-08 06:42 47.90677 14.76451 29042 ft 516 kts 91°
2026-05-08 06:42 47.90511 14.87437 29051 ft 517 kts 91°
2026-05-08 06:43 47.90335 14.98521 29049 ft 517 kts 92°
2026-05-08 06:43 47.90151 15.09523 28944 ft 513 kts 92°
2026-05-08 06:44 47.90055 15.15000 28318 ft 510 kts 92°
2026-05-08 06:44 47.89956 15.20429 27197 ft 513 kts 91°
2026-05-08 06:44 47.89854 15.25954 25987 ft 516 kts 91°
2026-05-08 06:44 47.89756 15.31432 24852 ft 515 kts 90°
2026-05-08 06:45 47.89821 15.36910 23755 ft 513 kts 87°
2026-05-08 06:45 47.89990 15.42368 22977 ft 503 kts 86°
2026-05-08 06:45 47.90169 15.47642 22146 ft 496 kts 86°
2026-05-08 06:45 47.90340 15.52946 21310 ft 490 kts 86°
2026-05-08 06:46 47.90495 15.58142 20520 ft 484 kts 86°
2026-05-08 06:46 47.90636 15.63254 19747 ft 477 kts 87°
2026-05-08 06:46 47.90769 15.68341 18962 ft 472 kts 88°
2026-05-08 06:46 47.90895 15.73408 18160 ft 467 kts 88°
2026-05-08 06:47 47.91016 15.78371 17375 ft 462 kts 88°
2026-05-08 06:47 47.91133 15.83266 16632 ft 456 kts 88°
2026-05-08 06:47 47.91246 15.88148 15904 ft 450 kts 88°
2026-05-08 06:47 47.91355 15.92916 15159 ft 445 kts 88°
2026-05-08 06:48 47.91456 15.97673 14402 ft 441 kts 88°
2026-05-08 06:48 47.91556 16.02364 13657 ft 436 kts 87°
2026-05-08 06:48 47.91680 16.07040 12921 ft 431 kts 87°
2026-05-08 06:48 47.91778 16.11618 12206 ft 426 kts 88°
2026-05-08 06:49 47.91866 16.16094 11613 ft 409 kts 88°
2026-05-08 06:49 47.91949 16.20375 10688 ft 392 kts 87°
2026-05-08 06:49 47.92029 16.24478 9790 ft 375 kts 87°
2026-05-08 06:49 47.92106 16.28424 8932 ft 359 kts 87°
2026-05-08 06:50 47.92177 16.32134 8132 ft 345 kts 87°
2026-05-08 06:50 47.92246 16.35772 7342 ft 332 kts 87°
2026-05-08 06:50 47.92312 16.39259 6583 ft 321 kts 87°
2026-05-08 06:50 47.92376 16.42634 5854 ft 310 kts 86°
2026-05-08 06:51 47.92435 16.45884 5165 ft 300 kts 86°
2026-05-08 06:51 47.92491 16.49012 4595 ft 288 kts 86°
2026-05-08 06:51 47.92545 16.52048 3999 ft 277 kts 86°
2026-05-08 06:51 47.92595 16.54972 3477 ft 270 kts 86°
2026-05-08 06:52 47.92645 16.57835 3194 ft 262 kts 86°
2026-05-08 06:52 47.92781 16.60534 3111 ft 249 kts 70°
2026-05-08 06:52 47.93668 16.62792 3066 ft 244 kts 39°
2026-05-08 06:52 47.95193 16.63978 3064 ft 234 kts
2026-05-08 06:53 47.96822 16.64075 3081 ft 224 kts 352°
2026-05-08 06:53 47.98370 16.63613 2970 ft 211 kts 344°
2026-05-08 06:53 47.99778 16.63018 2856 ft 196 kts 344°
2026-05-08 06:53 48.01128 16.62477 2586 ft 190 kts 342°
2026-05-08 06:54 48.02393 16.61905 2347 ft 178 kts 341°
2026-05-08 06:54 48.03569 16.61380 2110 ft 166 kts 342°
2026-05-08 06:54 48.04716 16.60905 1501 ft 169 kts 342°
2026-05-08 06:54 48.05823 16.60412 1254 ft 152 kts 342°
2026-05-08 06:55 48.06836 16.60011 991 ft 140 kts 343°
2026-05-08 06:55 48.07760 16.59607 789 ft 126 kts 341°
2026-05-08 06:55 48.08604 16.59249 653 ft 124 kts 342°
2026-05-08 06:55 48.09446 16.58893 594 ft 113 kts 345°
2026-05-08 06:56 48.10077 16.58622 599 ft 73 kts 344°
2026-05-08 06:56 48.10485 16.58453 600 ft 48 kts 343°
2026-05-08 06:56 48.10784 16.58325 597 ft 40 kts 344°
2026-05-08 06:56 48.11018 16.58124 596 ft 36 kts 303°
2026-05-08 06:57 48.11129 16.57793 597 ft 33 kts 294°
2026-05-08 06:57 48.11229 16.57492 599 ft 28 kts 295°
2026-05-08 06:57 48.11317 16.57338 602 ft 16 kts
2026-05-08 06:57 48.11430 16.57412 601 ft 18 kts 25°
2026-05-08 06:58 48.11555 16.57452 600 ft 18 kts 346°
2026-05-08 06:58 48.11685 16.57393 599 ft 19 kts 343°
2026-05-08 06:58 48.11821 16.57306 597 ft 21 kts 310°
2026-05-08 06:58 48.11903 16.57131 596 ft 20 kts 298°
2026-05-08 06:59 48.11964 16.56941 593 ft 16 kts 295°
2026-05-08 06:59 48.11941 16.56869 593 ft 7 kts 202°
2026-05-08 06:59 48.11896 16.56837 596 ft 5 kts 205°
2026-05-08 06:59 48.11878 16.56824 596 ft 0 kts 205°